Weather reports worldwide

Advertisment
Odiham, United Kingdom (3761): temperature & dewpoint: 18.08.2019 06:00:00 - 24.08.2019 06:00:00 (BST)Odiham, United Kingdom (3761): temperature -20cm & temperature -100cm: 18.08.2019 06:00:00 - 24.08.2019 06:00:00 (BST)Odiham, United Kingdom (3761): wind speed & gusts: 18.08.2019 06:00:00 - 24.08.2019 06:00:00 (BST)Odiham, United Kingdom (3761): wind direction: 18.08.2019 06:00:00 - 24.08.2019 06:00:00 (BST)Odiham, United Kingdom (3761): reduced air pressure: 18.08.2019 06:00:00 - 24.08.2019 06:00:00 (BST)Odiham, United Kingdom (3761): visibility: 18.08.2019 06:00:00 - 24.08.2019 06:00:00 (BST)Odiham, United Kingdom (3761): sunshine duration: 18.08.2019 06:00:00 - 24.08.2019 06:00:00 (BST)Odiham, United Kingdom (3761): precipitation: 18.08.2019 06:00:00 - 24.08.2019 06:00:00 (BST)
Date & Time tt [°C] td [°C] tt -20cm [°C] tt -100cm [°C] ff [km/h] ff [kn] fx [km/h] fx [kn] dd ppp [hPa] vv [km] sd [min] rr [mm]
24.08.2019 06:00:00 9,5 8,6 - - 2 1 - - N 1020,5 10 0 -
24.08.2019 05:00:00 10,6 9,8 - - 4 2 - - NE 1020,6 10 0 0,0
24.08.2019 04:00:00 11,6 10,6 - - 5 3 - - ESE 1020,8 10 0 0,0
24.08.2019 03:00:00 11,0 10,2 - - 11 6 - - ESE 1021,2 10 0 0,0
24.08.2019 02:00:00 11,2 9,4 - - 5 3 - - ESE 1021,7 10 0 0,0
24.08.2019 01:00:00 12,7 9,9 - - 9 5 - - SE 1021,7 10 - 0,0
24.08.2019 00:00:00 13,2 9,8 - - 4 2 - - SSE 1021,8 50 0 0,0
23.08.2019 23:00:00 14,2 9,0 - - 0 0 - - N 1021,9 35 0 0,0
23.08.2019 22:00:00 15,4 10,0 - - 5 3 - - S 1022,1 35 0 0,0
23.08.2019 21:00:00 15,5 9,2 - - 9 5 - - SSE 1022,3 40 0 0,0
23.08.2019 20:00:00 19,1 10,7 - - 9 5 - - SSE 1022,2 10 36 0,0
23.08.2019 19:00:00 22,3 11,1 - - 15 8 - - S 1022,2 10 60 0,0
23.08.2019 18:00:00 23,4 12,4 - - 15 8 - - S 1022,3 40 60 0,0
23.08.2019 17:00:00 24,3 10,9 - - 13 7 - - SSE 1022,6 10 60 0,0
23.08.2019 16:00:00 24,7 14,0 - - 15 8 - - S 1022,9 30 60 0,0
23.08.2019 15:00:00 24,4 14,7 - - 11 6 - - S 1023,3 10 60 0,0
23.08.2019 14:00:00 23,6 14,8 - - 11 6 - - S 1023,9 10 60 0,0
23.08.2019 13:00:00 23,0 14,8 - - 13 7 - - SE 1024,2 10 60 0,0
23.08.2019 12:00:00 22,3 14,7 - - 5 3 - - S 1024,6 10 60 0,0
23.08.2019 11:00:00 20,6 15,3 - - 8 4 - - SE 1025,2 10 60 0,0
23.08.2019 10:00:00 18,9 14,5 17,7 16,9 5 3 - - ESE 1025,5 10 60 0,0
23.08.2019 09:00:00 18,1 15,2 - - 4 2 - - E 1025,6 10 60 0,0
23.08.2019 08:00:00 15,2 14,7 - - 4 2 - - SSE 1025,6 10 30 0,0
23.08.2019 07:00:00 13,0 12,9 - - 4 2 - - SSE 1025,6 12 6 0,0
23.08.2019 06:00:00 12,2 11,9 - - 2 1 - - S 1025,4 0,5 0 0,0
23.08.2019 05:00:00 12,7 12,6 - - 5 3 - - S 1025,3 9 0 0,0
23.08.2019 04:00:00 13,0 12,6 - - 5 3 - - WSW 1025,6 10 0 0,0
23.08.2019 03:00:00 12,3 10,7 - - 5 3 - - SE 1025,7 11 0 0,0
23.08.2019 02:00:00 14,5 13,1 - - 8 4 - - SW 1025,6 10 0 0,0
23.08.2019 01:00:00 14,8 13,5 - - 5 3 - - SSW 1025,9 15 - 0,0
23.08.2019 00:00:00 15,1 13,3 - - 11 6 - - SW 1025,8 10 0 0,0
22.08.2019 23:00:00 15,6 13,5 - - 11 6 - - SSW 1025,8 18 0 0,0
22.08.2019 22:00:00 16,2 13,4 - - 13 7 - - SSW 1025,5 18 0 0,0
22.08.2019 21:00:00 17,0 13,2 - - 11 6 - - S 1025,4 10 0 0,0
22.08.2019 20:00:00 19,0 13,6 - - 13 7 - - SW 1024,7 30 12 0,0
22.08.2019 19:00:00 20,4 13,4 - - 16 9 - - SW 1024,3 10 36 0,0
22.08.2019 18:00:00 20,7 13,7 - - 16 9 - - SSW 1024,3 10 24 0,0
22.08.2019 17:00:00 21,2 14,0 - - 18 10 - - SSW 1024,5 10 6 0,0
22.08.2019 16:00:00 21,2 12,6 - - 18 10 - - SW 1024,3 10 6 0,0
22.08.2019 15:00:00 21,8 12,5 - - 16 9 - - SW 1024,6 10 18 0,0
22.08.2019 14:00:00 20,9 12,6 - - 21 11 - - SW 1024,7 10 30 0,0
22.08.2019 13:00:00 20,6 11,9 - - 21 11 - - SW 1025,0 10 60 0,0
22.08.2019 12:00:00 19,5 12,0 - - 22 12 - - SW 1025,2 10 60 0,0
22.08.2019 11:00:00 18,8 11,8 - - 22 12 - - SW 1025,3 10 60 0,0
22.08.2019 10:00:00 16,4 12,0 17,7 16,9 21 11 - - SW 1025,6 10 60 0,0
22.08.2019 09:00:00 15,1 11,6 - - 22 12 - - SW 1025,4 25 60 0,0
22.08.2019 08:00:00 13,8 11,6 - - 16 9 - - SW 1025,5 10 60 0,0
22.08.2019 07:00:00 12,2 11,2 - - 8 4 - - WSW 1025,2 10 24 0,0
22.08.2019 06:00:00 11,2 10,4 - - 15 8 - - SSW 1024,9 10 0 0,0
22.08.2019 05:00:00 11,8 10,9 - - 15 8 - - SSW 1024,8 10 0 0,0
22.08.2019 04:00:00 12,5 11,4 - - 15 8 - - SSW 1024,8 10 0 0,0
22.08.2019 03:00:00 12,9 12,0 - - 16 9 - - SSW 1024,9 10 0 0,0
22.08.2019 02:00:00 13,1 12,1 - - 16 9 - - SSW 1025,1 10 0 0,0
22.08.2019 01:00:00 13,2 12,0 - - 15 8 - - SSW 1025,2 10 - 0,0
22.08.2019 00:00:00 13,2 11,7 - - 15 8 - - SSW 1025,6 10 0 0,0
21.08.2019 23:00:00 13,3 11,4 - - 15 8 - - SSW 1025,9 10 0 0,0
21.08.2019 22:00:00 13,6 10,3 - - 16 9 - - SSW 1025,9 10 0 0,0
21.08.2019 21:00:00 14,4 9,3 - - 15 8 - - SSW 1025,7 10 0 0,0
21.08.2019 20:00:00 15,5 9,5 - - 13 7 - - SSW 1025,5 10 12 0,0
21.08.2019 19:00:00 18,2 9,1 - - 16 9 - - SSW 1025,3 25 60 0,0
21.08.2019 18:00:00 19,9 11,0 - - 21 11 - - SSW 1025,2 10 48 0,0
21.08.2019 17:00:00 20,7 11,9 - - 15 8 - - S 1025,3 10 54 0,0
21.08.2019 16:00:00 20,7 11,5 - - 18 10 - - S 1025,4 10 54 0,0
21.08.2019 15:00:00 20,2 11,3 - - 16 9 - - SSW 1026,1 10 30 0,0
21.08.2019 14:00:00 20,2 11,4 - - 16 9 - - SSW 1026,6 10 12 0,0
21.08.2019 13:00:00 18,9 10,6 - - 15 8 - - SSW 1026,7 25 24 0,0
21.08.2019 12:00:00 19,4 10,1 - - 15 8 - - SSW 1027,2 10 48 0,0
21.08.2019 11:00:00 18,3 10,0 - - 16 9 - - WSW 1027,5 10 60 0,0
21.08.2019 10:00:00 17,0 11,3 17,7 17,0 11 6 - - S 1027,6 10 0 0,0
21.08.2019 09:00:00 15,3 12,1 - - 5 3 - - SW 1027,8 10 12 0,0
21.08.2019 08:00:00 14,1 12,1 - - 9 5 - - SW 1027,7 10 60 0,0
21.08.2019 07:00:00 11,4 10,0 - - 11 6 - - SW 1027,6 20 12 0,0
21.08.2019 06:00:00 11,0 9,9 - - 9 5 - - SSW 1027,5 10 0 0,0
21.08.2019 05:00:00 11,4 9,2 - - 11 6 - - SW 1027,3 10 0 0,0
21.08.2019 04:00:00 11,3 8,9 - - 9 5 - - SW 1027,3 10 0 0,0
21.08.2019 03:00:00 11,4 8,5 - - 9 5 - - SSW 1027,3 23 0 0,0
21.08.2019 02:00:00 12,2 9,0 - - 9 5 - - SSW 1027,1 25 0 0,0
21.08.2019 01:00:00 12,4 8,2 - - 9 5 - - SSW 1027,3 10 - 0,0
21.08.2019 00:00:00 12,7 8,1 - - 9 5 - - SSW 1027,2 10 0 0,0
20.08.2019 23:00:00 12,8 7,9 - - 11 6 - - SW 1027,2 10 0 0,0
20.08.2019 22:00:00 12,9 6,8 - - 8 4 - - SSW 1026,9 10 0 0,0
20.08.2019 21:00:00 15,9 6,4 - - 11 6 - - WSW 1026,3 10 0 0,0
20.08.2019 20:00:00 17,3 7,7 - - 9 5 - - WSW 1025,7 10 36 0,0
20.08.2019 19:00:00 18,6 7,4 - - 13 7 - - W 1025,2 10 60 0,0
20.08.2019 18:00:00 18,8 6,7 - - 13 7 - - WNW 1024,6 10 48 0,0
20.08.2019 17:00:00 19,0 6,2 - - 22 12 - - W 1024,3 10 54 0,0
20.08.2019 16:00:00 18,4 5,3 - - 24 13 - - W 1024,2 10 54 0,0
20.08.2019 15:00:00 18,9 5,1 - - 28 15 - - W 1023,9 10 60 0,0
20.08.2019 14:00:00 18,6 4,7 - - 28 15 - - W 1023,5 30 60 0,0
20.08.2019 13:00:00 17,9 6,1 - - 24 13 - - W 1023,4 10 48 0,0
20.08.2019 12:00:00 18,0 7,5 - - 26 14 - - WSW 1023,2 10 54 0,0
20.08.2019 11:00:00 16,4 7,7 - - 21 11 - - W 1023,2 10 60 0,0
20.08.2019 10:00:00 15,3 8,9 17,7 17,0 18 10 - - W 1023,1 10 60 0,0
20.08.2019 09:00:00 14,2 9,3 - - 16 9 - - W 1022,5 10 60 0,0
20.08.2019 08:00:00 12,1 10,3 - - 15 8 - - SW 1021,9 10 42 0,0
20.08.2019 07:00:00 11,3 9,9 - - 13 7 - - SW 1021,2 10 0 0,0
20.08.2019 06:00:00 11,2 9,8 - - 18 10 - - SW 1020,5 16 0 0,0
20.08.2019 05:00:00 11,3 9,8 - - 16 9 - - SW 1020,2 16 0 0,0
20.08.2019 04:00:00 11,0 9,4 - - 13 7 - - SW 1020,0 10 0 0,0
20.08.2019 03:00:00 11,2 9,4 - - 13 7 - - SW 1019,7 10 0 0,0
20.08.2019 02:00:00 11,6 9,5 - - 13 7 - - SW 1019,7 17 0 0,0
20.08.2019 01:00:00 12,1 10,0 - - 15 8 - - SW 1019,8 10 - 0,0
20.08.2019 00:00:00 12,1 9,8 - - 15 8 - - SW 1019,7 18 0 0,0
19.08.2019 23:00:00 12,5 9,6 - - 11 6 - - SW 1019,2 10 0 0,0
19.08.2019 22:00:00 13,6 9,9 - - 11 6 - - SW 1018,8 10 0 0,0
19.08.2019 21:00:00 14,3 9,0 - - 11 6 - - SW 1018,1 10 0 0,0
19.08.2019 20:00:00 16,6 8,7 - - 16 9 - - W 1017,3 10 42 0,0
19.08.2019 19:00:00 18,1 9,2 - - 22 12 - - W 1016,7 10 60 0,0
19.08.2019 18:00:00 18,5 8,8 - - 28 15 - - WSW 1016,1 10 54 0,0
19.08.2019 17:00:00 17,0 11,4 - - 18 10 46 25 SW 1015,9 10 36 0,6
19.08.2019 16:00:00 16,6 9,9 - - 26 14 - - WSW 1016,0 10 36 0,0
19.08.2019 15:00:00 18,2 11,8 - - 18 10 - - SW 1015,3 10 24 0,4
19.08.2019 14:00:00 17,2 12,0 - - 24 13 - - WSW 1015,1 10 30 1,0
19.08.2019 13:00:00 14,9 11,4 - - 29 16 46 25 W 1015,1 5 30 0,6
19.08.2019 12:00:00 18,0 12,7 - - 24 13 - - SW 1014,0 10 36 0,2
19.08.2019 11:00:00 16,2 11,9 - - 24 13 - - WSW 1013,9 10 36 0,0
19.08.2019 10:00:00 16,1 12,0 17,7 17,0 29 16 - - SW 1013,6 10 54 0,0
19.08.2019 09:00:00 14,7 11,8 - - 26 14 - - SW 1013,0 10 48 0,0
19.08.2019 08:00:00 13,5 11,6 - - 24 13 - - SW 1012,7 10 12 0,0
19.08.2019 07:00:00 12,6 11,2 - - 22 12 - - SW 1012,4 10 0 0,0
19.08.2019 06:00:00 12,4 11,1 - - 22 12 - - SW 1011,9 10 0 0,0
19.08.2019 05:00:00 12,7 11,1 - - 21 11 - - SW 1011,5 10 0 0,0
19.08.2019 04:00:00 12,5 11,2 - - 22 12 - - SW 1011,0 10 0 0,0
19.08.2019 03:00:00 12,8 11,3 - - 21 11 - - SW 1010,9 10 0 0,0
19.08.2019 02:00:00 12,9 11,2 - - 21 11 - - SW 1010,8 10 0 0,0
19.08.2019 01:00:00 13,0 11,3 - - 18 10 - - SW 1010,6 10 - 0,0
19.08.2019 00:00:00 13,1 10,8 - - 21 11 - - SW 1010,4 10 0 0,0
18.08.2019 23:00:00 13,6 11,8 - - 21 11 - - SW 1010,0 10 0 0,0
18.08.2019 22:00:00 13,7 12,6 - - 15 8 - - SW 1009,4 10 0 0,0
18.08.2019 21:00:00 13,6 12,6 - - 13 7 - - SW 1008,8 10 0 0,0
18.08.2019 20:00:00 14,2 12,9 - - 24 13 55 30 SW 1008,2 40 0 2,4
18.08.2019 19:00:00 17,5 11,6 - - 28 15 - - SSW 1007,3 10 6 0,0
18.08.2019 18:00:00 17,4 11,8 - - 22 12 46 25 SSW 1007,2 10 0 0,0
18.08.2019 17:00:00 18,4 11,2 - - 24 13 - - SW 1006,8 10 6 0,0
18.08.2019 16:00:00 19,1 9,9 - - 29 16 50 27 WSW 1006,4 10 24 0,0
18.08.2019 15:00:00 19,0 9,0 - - 34 18 46 25 WSW 1005,9 10 42 0,0
18.08.2019 14:00:00 19,5 10,1 - - 24 13 - - W 1005,5 10 36 0,0
18.08.2019 13:00:00 18,6 10,5 - - 24 13 - - WSW 1005,0 40 36 0,0
18.08.2019 12:00:00 16,5 11,9 - - 18 10 - - WSW 1005,0 10 36 0,0
18.08.2019 11:00:00 15,2 11,9 - - 11 6 - - SW 1004,6 35 6 0,8
18.08.2019 10:00:00 14,0 13,0 17,9 17,0 18 10 - - WSW 1004,7 7 0 1,4
18.08.2019 09:00:00 15,1 12,5 - - 18 10 - - SW 1003,7 10 0 0,0
18.08.2019 08:00:00 14,9 12,4 - - 16 9 - - SW 1003,0 10 6 0,0
18.08.2019 07:00:00 14,2 12,6 - - 13 7 - - SW 1002,9 10 0 0,0
18.08.2019 06:00:00 14,1 12,7 - - 13 7 - - SSW 1003,1 10 0 0,0

tt = temperature
td = dewpoint
tt -20cm = temperature -20cm
tt -100cm = temperature -100cm
ff = wind speed
fx = gusts
dd = wind direction
ppp = reduced air pressure
vv = visibility
sd = sunshine duration
rr = precipitation

Next stations